Regional Weather Roundup
Issued by NWS

Home | Current Version | Previous Version | Graphics & Text | Print | Product List | Glossary On
Versions: 1 2 3 4 5 6 7 8 9 10 11 12 13 14 15 16 17 18 19 20 21 22 23 24 25 26 27 28 29 30 31 32 33 34 35 36 37 38 39 40 41 42 43 44 45 46 47 48 49 50
000
ASUS43 KTOP 281859
RWRKS

WEATHER ROUNDUP FOR KANSAS
NATIONAL WEATHER SERVICE GOODLAND KS
200 PM CDT TUE JUL 28 2015

NOTE:  "FAIR" INDICATES FEW OR NO CLOUDS BELOW 12,000 FEET WITH NO
SIGNIFICANT WEATHER AND/OR OBSTRUCTIONS TO VISIBILITY.

KSZ001>006-013>018-027>032-041>047-282000-
NORTHWEST KANSAS

CITY           SKY/WX    TMP DP  RH WIND       PRES   REMARKS
GOODLAND       SUNNY     82  41  23 N17G26    30.08R
HAYS           SUNNY     88  66  48 N22G29    29.90R
HILL CITY      SUNNY     86  56  35 N18G31    29.97R
RUSSELL        SUNNY     92  69  47 CALM      29.86R HX  97
$$

KSZ061>065-074>080-084>089-282000-
SOUTHWEST KANSAS

CITY           SKY/WX    TMP DP  RH WIND       PRES   REMARKS
DODGE CITY     SUNNY     89  67  47 N13       29.94R
ELKHART          N/A     87  53  31 N15         N/A
GARDEN CITY    SUNNY     85  62  46 N18G29    29.98R
GREAT BEND     SUNNY     95  68  41 SW14      29.86S HX  99
LIBERAL        SUNNY     88  61  40 N18G24    29.97S
$$

KSZ066>073-081>083-090>101-282000-
SOUTHEAST KANSAS

CITY           SKY/WX    TMP DP  RH WIND       PRES   REMARKS
CHANUTE        SUNNY     94  72  48 S15G23    29.92F HX 102
COFFEYVILLE    SUNNY     94  73  50 S15G24    29.92F HX 103
HUTCHINSON     SUNNY    101  67  32 S21G26    29.86S HX 106
MEDICINE LODGE   N/A     97  70  41 S14       29.86S HX 103
NEWTON         SUNNY     99  68  36 S17G25    29.90S HX 104
PARSONS        SUNNY     93  74  53 S13G23    29.93F HX 103
WICHITA INTL   SUNNY     97  70  41 S22G29    29.86F HX 103
WICHITA JABRA  SUNNY     96  70  42 S21G26    29.87F HX 102
WINFIELD       SUNNY     96  71  44 S14G25    29.91R HX 103
$$

KSZ007>012-019>026-033>040-048>060-102>105-282000-
NORTHEAST KANSAS

CITY           SKY/WX    TMP DP  RH WIND       PRES   REMARKS
CONCORDIA      SUNNY     94  71  47 W10G16    29.85R HX 101
EMPORIA        SUNNY     98  69  38 S21       29.87F HX 104
LAWRENCE       SUNNY     95  73  48 S10G21    29.88S HX 104
MANHATTAN      SUNNY     99  72  41 S13G22    29.82F HX 108
OLATHE IND     SUNNY     94  72  48 S21       29.90F HX 102
OLATHE EXE     SUNNY     92  72  51 S16G25    29.90F HX  99
SALINA         SUNNY    101  68  34 S16G22    29.82F HX 106
TOPEKA BILLARD SUNNY     95  73  48 S13G22    29.86S HX 104
TOPEKA FORBES  SUNNY     97  71  42 S16       29.87S HX 104
$$



USA.gov is the U.S. government's official web portal to all federal, state and local government web resources and services.